When you browse on this site, cookies collect data to enhance your experience and personalize the content and advertising you see.
Visit our Privacy Policy to learn more. By continuing to use the site, you agree to this use of cookies and data.

Stündliche Wetter Bolshie Kalmyki

Heute, 27 September, Sonntag

Zeit Temperatur Niederschläge Wind Luftdruck Luftfeuchtigkeit
00:00 +15°C° 0 mm 5 m/S 743 mmHg 47%
01:00 +15°C° 0 mm 5 m/S 744 mmHg 46%
02:00 +14°C° 0 mm 5 m/S 744 mmHg 44%
03:00 +13°C° 0 mm 5 m/S 744 mmHg 42%
04:00 +13°C° 0 mm 5 m/S 744 mmHg 42%
05:00 +12°C° 0 mm 5 m/S 744 mmHg 42%
06:00 +12°C° 0 mm 5 m/S 744 mmHg 42%
07:00 +11°C° 0 mm 6 m/S 745 mmHg 44%
08:00 +11°C° 0 mm 6 m/S 745 mmHg 46%
09:00 +11°C° 0 mm 6 m/S 745 mmHg 48%
10:00 +14°C° 0 mm 6 m/S 745 mmHg 45%
11:00 +15°C° 0 mm 7 m/S 745 mmHg 43%
12:00 +16°C° 0 mm 7 m/S 745 mmHg 40%
13:00 +17°C° 0 mm 7 m/S 745 mmHg 39%
14:00 +17°C° 0 mm 7 m/S 745 mmHg 39%
15:00 +17°C° 0 mm 7 m/S 745 mmHg 38%
16:00 +16°C° 0 mm 6 m/S 745 mmHg 40%
17:00 +15°C° 0 mm 6 m/S 745 mmHg 43%
18:00 +14°C° 0 mm 5 m/S 744 mmHg 45%
19:00 +14°C° 0 mm 5 m/S 745 mmHg 44%
20:00 +14°C° 0 mm 6 m/S 745 mmHg 43%
21:00 +13°C° 0 mm 6 m/S 745 mmHg 42%
22:00 +13°C° 0 mm 6 m/S 745 mmHg 42%
23:00 +13°C° 0 mm 6 m/S 745 mmHg 41%

Morgen, 28 September, Montag

Zeit Temperatur Niederschläge Wind Luftdruck Luftfeuchtigkeit
00:00 +13°C° 0 mm 6 m/S 745 mmHg 41%
01:00 +13°C° 0 mm 6 m/S 745 mmHg 40%
02:00 +13°C° 0 mm 6 m/S 745 mmHg 40%
03:00 +13°C° 0 mm 6 m/S 745 mmHg 39%
04:00 +11°C° 0 mm 6 m/S 745 mmHg 40%
05:00 +11°C° 0 mm 6 m/S 746 mmHg 41%
06:00 +11°C° 0 mm 6 m/S 746 mmHg 43%
07:00 +12°C° 0.1 mm 5 m/S 746 mmHg 46%
08:00 +12°C° 0.1 mm 5 m/S 746 mmHg 50%
09:00 +10°C° 0.1 mm 5 m/S 746 mmHg 53%
10:00 +12°C° 0.1 mm 5 m/S 746 mmHg 56%
11:00 +13°C° 0.1 mm 5 m/S 746 mmHg 59%
12:00 +13°C° 0.1 mm 5 m/S 747 mmHg 62%
13:00 +14°C° 0 mm 5 m/S 747 mmHg 60%
14:00 +15°C° 0 mm 5 m/S 747 mmHg 58%
15:00 +16°C° 0 mm 5 m/S 747 mmHg 56%
16:00 +16°C° 0 mm 5 m/S 747 mmHg 56%
17:00 +15°C° 0 mm 5 m/S 747 mmHg 55%
18:00 +14°C° 0 mm 5 m/S 747 mmHg 55%
19:00 +14°C° 0 mm 5 m/S 747 mmHg 55%
20:00 +14°C° 0 mm 5 m/S 747 mmHg 54%
21:00 +14°C° 0 mm 5 m/S 747 mmHg 54%
22:00 +14°C° 0 mm 5 m/S 747 mmHg 54%
23:00 +14°C° 0 mm 4 m/S 747 mmHg 53%

übermorgen, 29 September, Dienstag

Zeit Temperatur Niederschläge Wind Luftdruck Luftfeuchtigkeit
00:00 +14°C° 0 mm 4 m/S 747 mmHg 53%
01:00 +13°C° 0 mm 4 m/S 747 mmHg 51%
02:00 +13°C° 0 mm 4 m/S 747 mmHg 48%
03:00 +13°C° 0 mm 4 m/S 747 mmHg 46%
04:00 +13°C° 0 mm 4 m/S 747 mmHg 45%
05:00 +13°C° 0 mm 4 m/S 747 mmHg 44%
06:00 +13°C° 0 mm 5 m/S 747 mmHg 43%
07:00 +13°C° 0 mm 5 m/S 747 mmHg 44%
08:00 +13°C° 0 mm 5 m/S 747 mmHg 44%
09:00 +13°C° 0 mm 5 m/S 747 mmHg 45%
10:00 +14°C° 0 mm 5 m/S 747 mmHg 45%
11:00 +14°C° 0 mm 5 m/S 747 mmHg 45%
12:00 +15°C° 0 mm 5 m/S 747 mmHg 45%
13:00 +15°C° 0 mm 5 m/S 747 mmHg 44%
14:00 +15°C° 0 mm 5 m/S 747 mmHg 43%
15:00 +16°C° 0 mm 5 m/S 746 mmHg 42%
16:00 +15°C° 0 mm 5 m/S 746 mmHg 43%
17:00 +14°C° 0 mm 5 m/S 746 mmHg 44%
18:00 +14°C° 0 mm 5 m/S 746 mmHg 45%
19:00 +13°C° 0 mm 5 m/S 746 mmHg 45%
20:00 +12°C° 0 mm 5 m/S 745 mmHg 45%
21:00 +10°C° 0 mm 5 m/S 745 mmHg 45%
22:00 +10°C° 0 mm 5 m/S 745 mmHg 45%
23:00 +10°C° 0 mm 5 m/S 745 mmHg 44%

30 September, Mittwoch

Zeit Temperatur Niederschläge Wind Luftdruck Luftfeuchtigkeit
00:00 +10°C° 0 mm 5 m/S 745 mmHg 44%
01:00 +9°C° 0 mm 5 m/S 745 mmHg 43%
02:00 +9°C° 0 mm 5 m/S 745 mmHg 43%
03:00 +9°C° 0 mm 5 m/S 744 mmHg 43%
04:00 +9°C° 0 mm 5 m/S 744 mmHg 44%
05:00 +8°C° 0 mm 5 m/S 744 mmHg 45%
06:00 +8°C° 0 mm 5 m/S 744 mmHg 45%
07:00 +9°C° 0 mm 5 m/S 744 mmHg 46%
08:00 +10°C° 0 mm 6 m/S 744 mmHg 46%
09:00 +10°C° 0 mm 6 m/S 744 mmHg 46%
10:00 +12°C° 0 mm 7 m/S 744 mmHg 42%
11:00 +15°C° 0 mm 7 m/S 744 mmHg 39%
12:00 +16°C° 0 mm 8 m/S 744 mmHg 36%
13:00 +17°C° 0 mm 7 m/S 744 mmHg 35%
14:00 +17°C° 0 mm 7 m/S 744 mmHg 34%
15:00 +17°C° 0 mm 7 m/S 743 mmHg 33%
16:00 +16°C° 0 mm 7 m/S 743 mmHg 37%
17:00 +15°C° 0 mm 6 m/S 743 mmHg 40%
18:00 +14°C° 0 mm 5 m/S 743 mmHg 43%
19:00 +14°C° 0 mm 5 m/S 743 mmHg 44%
20:00 +13°C° 0 mm 6 m/S 743 mmHg 45%
21:00 +13°C° 0 mm 6 m/S 743 mmHg 46%
22:00 +12°C° 0 mm 5 m/S 743 mmHg 47%
23:00 +12°C° 0 mm 5 m/S 743 mmHg 48%

1 Oktober, Donnerstag

Zeit Temperatur Niederschläge Wind Luftdruck Luftfeuchtigkeit
00:00 +10°C° 0 mm 5 m/S 743 mmHg 49%
01:00 +10°C° 0 mm 5 m/S 743 mmHg 50%
02:00 +10°C° 0 mm 5 m/S 743 mmHg 51%
03:00 +9°C° 0 mm 5 m/S 743 mmHg 53%
04:00 +9°C° 0 mm 5 m/S 743 mmHg 54%
05:00 +9°C° 0 mm 5 m/S 743 mmHg 56%
06:00 +9°C° 0 mm 5 m/S 743 mmHg 57%
07:00 +10°C° 0 mm 6 m/S 744 mmHg 56%
08:00 +11°C° 0 mm 6 m/S 744 mmHg 54%
09:00 +12°C° 0 mm 7 m/S 744 mmHg 53%
10:00 +14°C° 0 mm 7 m/S 744 mmHg 49%
11:00 +15°C° 0 mm 8 m/S 744 mmHg 45%
12:00 +17°C° 0 mm 8 m/S 744 mmHg 41%
13:00 +17°C° 0 mm 8 m/S 744 mmHg 40%
14:00 +17°C° 0 mm 7 m/S 744 mmHg 39%
15:00 +17°C° 0 mm 7 m/S 744 mmHg 38%
16:00 +16°C° 0 mm 6 m/S 744 mmHg 40%
17:00 +15°C° 0 mm 5 m/S 744 mmHg 43%
18:00 +14°C° 0 mm 4 m/S 744 mmHg 46%
19:00 +14°C° 0 mm 5 m/S 744 mmHg 45%
20:00 +14°C° 0 mm 5 m/S 744 mmHg 45%
21:00 +14°C° 0 mm 6 m/S 744 mmHg 44%
22:00 +13°C° 0 mm 5 m/S 744 mmHg 46%
23:00 +13°C° 0 mm 5 m/S 744 mmHg 48%

2 Oktober, Freitag

Zeit Temperatur Niederschläge Wind Luftdruck Luftfeuchtigkeit
00:00 +13°C° 0 mm 5 m/S 744 mmHg 49%
01:00 +12°C° 0 mm 5 m/S 744 mmHg 51%
02:00 +12°C° 0 mm 5 m/S 744 mmHg 53%
03:00 +12°C° 0 mm 5 m/S 744 mmHg 55%
04:00 +12°C° 0 mm 5 m/S 744 mmHg 57%
05:00 +10°C° 0 mm 5 m/S 745 mmHg 59%
06:00 +10°C° 0 mm 5 m/S 745 mmHg 60%
07:00 +12°C° 0 mm 5 m/S 745 mmHg 60%
08:00 +11°C° 0 mm 6 m/S 745 mmHg 60%
09:00 +13°C° 0 mm 6 m/S 745 mmHg 60%
10:00 +14°C° 0 mm 6 m/S 745 mmHg 57%
11:00 +16°C° 0 mm 7 m/S 745 mmHg 54%
12:00 +17°C° 0 mm 7 m/S 745 mmHg 51%
13:00 +17°C° 0 mm 7 m/S 745 mmHg 50%
14:00 +17°C° 0 mm 7 m/S 745 mmHg 50%
15:00 +18°C° 0 mm 7 m/S 745 mmHg 49%
16:00 +17°C° 0 mm 6 m/S 745 mmHg 51%
17:00 +16°C° 0 mm 5 m/S 745 mmHg 53%
18:00 +16°C° 0 mm 5 m/S 745 mmHg 55%
19:00 +15°C° 0 mm 5 m/S 746 mmHg 56%
20:00 +14°C° 0 mm 4 m/S 746 mmHg 58%
21:00 +14°C° 0 mm 4 m/S 746 mmHg 59%
22:00 +13°C° 0 mm 4 m/S 746 mmHg 61%
23:00 +13°C° 0 mm 3 m/S 746 mmHg 63%
Mehr zeigen